Hourly Data Report for October 09, 2004

TORONTO CITY
ONTARIO

43°40'00.000" N
79°24'00.000" W
112.50 m
6158355
71508
XTO

Download Data

Hourly Data (October 2004)
Hourly Data Report for October 9, 2004
TIME
LST
Temp Definition
°C
Dew Point Definition
°C
Rel Hum Definition
%
Precip. Amount Definition
mm

Wind Dir Definition
10's deg

Wind Spd Definition
km/h
Visibility Definition
km
Stn Press Definition
kPa
Hmdx Definition


Wind Chill Definition


Weather Definition


00:00 17.8 12.3 70   LegendMM LegendMM LegendMM 100.05     LegendNANA
01:00 17.6 12.0 70   LegendMM LegendMM LegendMM 99.98     LegendNANA
02:00 17.4 13.1 76   LegendMM LegendMM LegendMM 99.90     LegendNANA
03:00 17.5 13.9 79   LegendMM LegendMM LegendMM 99.79     LegendNANA
04:00 17.3 13.8 80   LegendMM LegendMM LegendMM 99.76     LegendNANA
05:00 17.1 15.2 89   LegendMM LegendMM LegendMM 99.74     LegendNANA
06:00 15.7 14.8 94   LegendMM LegendMM LegendMM 99.73     LegendNANA
07:00 16.3 15.1 93   LegendMM LegendMM LegendMM 99.78     LegendNANA
08:00 16.0 11.6 75   LegendMM LegendMM LegendMM 99.83     LegendNANA
09:00 15.8 9.3 65   LegendMM LegendMM LegendMM 99.94     LegendNANA
10:00 17.1 9.0 59   LegendMM LegendMM LegendMM 99.90     LegendNANA
11:00 18.3 8.7 53   LegendMM LegendMM LegendMM 99.90     LegendNANA
12:00 17.6 7.7 52   LegendMM LegendMM LegendMM 99.93     LegendNANA
13:00 16.0 7.8 58   LegendMM LegendMM LegendMM 100.00     LegendNANA
14:00
15:00 16.7 7.4 54   LegendMM LegendMM LegendMM 100.04     LegendNANA
16:00 17.0 4.8 44   LegendMM LegendMM LegendMM 100.07     LegendNANA
17:00 16.3 5.1 47   LegendMM LegendMM LegendMM 100.13     LegendNANA
18:00 15.6 5.5 51   LegendMM LegendMM LegendMM 100.22     LegendNANA
19:00 15.7 5.2 50   LegendMM LegendMM LegendMM 100.23     LegendNANA
20:00 14.4 6.4 59   LegendMM LegendMM LegendMM 100.33     LegendNANA
21:00 13.0 7.2 68   LegendMM LegendMM LegendMM 100.35     LegendNANA
22:00 12.4 7.5 72   LegendMM LegendMM LegendMM 100.35     LegendNANA
23:00 11.8 7.3 74   LegendMM LegendMM LegendMM 100.38     LegendNANA

Notes on Data Quality.

Legend

  • E = Estimated
  • M = Missing
  • NA = Not Available*
  • [empty] = Indicates an unobserved value
Date modified: